User: anonymous   Login
Location: *
(46.1833°N, 22.7667°E)
Time: 22:25:49
(UTC+00:00)
Language:

DMSP B5D2-2 - Orbit

View from above orbital plane
View from above orbital plane
View from above satellite
View from above satellite

Ground track
Ground track

The orbit data is extracted from the following two-line orbital elements,

1 14506U 83113A   19326.55757069  .00000028  00000-0  27720-4 0  9999
2 14506  98.3557 183.0635 0012240 113.9819 275.6664 14.28066373873297
Epoch (UTC): 22 November 2019 13:22:54
Eccentricity: 0.0012240
inclination: 98.3557°
perigee height: 789 km
apogee height: 807 km
right ascension of ascending node: 183.0635°
argument of perigee: 113.9819°
revolutions per day: 14.28066373
mean anomaly at epoch: 275.6664°
orbit number at epoch: 87329

The dashed part of the orbit path shows where the satellite is in the earth's shadow,  

DLR